Miscellaneous Local Product
Issued by NWS Hastings, NE

Home | Current Version | Previous Version | Graphics & Text | Print | Product List | Glossary On
Versions: 1 2 3 4 5 6 7 8 9 10 11 12 13 14 15 16 17 18 19 20 21 22 23 24 25 26 27 28 29 30 31 32 33 34 35 36 37 38 39 40 41 42 43 44 45 46 47 48 49 50
484
AXUS43 KGID 180202
MISGRI

GID CWA HOURLY WEATHER ROUNDUP
NATIONAL WEATHER SERVICE HASTINGS NE
900 PM CDT THU AUG 17 2017

NOTE: "FAIR" INDICATES FEW OR NO CLOUDS BELOW 12,000 FEET WITH NO
SIGNIFICANT WEATHER AND/OR OBSTRUCTIONS TO VISIBILITY.

...SOUTH CENTRAL NEBRASKA...

CITY           SKY/WX    TMP DP  RH WIND       PRES   REMARKS
GRAND ISLAND   CLEAR     72  66  81 S7        29.93F
HASTINGS       CLEAR     76  61  59 S3        29.95S
KEARNEY        CLOUDY    72  65  78 S8        29.94F
ORD            CLEAR     74  59  59 S6        29.90R
YORK           CLEAR     70  66  88 S6        29.93S
AURORA         CLEAR     74  66  76 S5        29.92F
LEXINGTON      MOCLDY    73  63  70 SE8       29.93S
HOLDREGE       CLEAR     70  61  73 SE6       29.94F
HEBRON         CLEAR     73  66  78 S6        29.94S

...NEBRASKA PANHANDLE...

CITY           SKY/WX    TMP DP  RH WIND       PRES   REMARKS
CHADRON        CLOUDY    67  52  58 NE7       29.99R
ALLIANCE       CLOUDY    68  49  50 MISG      29.99R
SCOTTSBLUFF    PTCLDY    73  47  39 NE17      30.00R
SIDNEY         CLEAR     68  48  48 S5        30.01S

...WESTERN AND NORTH CENTRAL NEBRASKA...

CITY           SKY/WX    TMP DP  RH WIND       PRES   REMARKS
VALENTINE      CLOUDY    77  49  37 NW38G53   29.89R
AINSWORTH      CLEAR     72  60  65 S8        29.87F
ONEILL         CLEAR     73  63  68 S7        29.88F
BROKEN BOW     CLEAR     76  60  57 S7        29.92S
IMPERIAL       CLOUDY    67  60  78 SE9       29.98R
NORTH PLATTE   CLOUDY    78  61  55 S6        29.92R
MCCOOK         LGT RAIN  73  57  57 W30G38    29.99R

...EASTERN NEBRASKA...

CITY           SKY/WX    TMP DP  RH WIND       PRES   REMARKS
NORFOLK        CLEAR     70  64  81 SE7       29.89F
SO SIOUX CITY  CLEAR     70  63  78 CALM      29.89S
TEKAMAH        CLEAR     68  65  90 SW5       29.90R
COLUMBUS       CLEAR     72  67  84 S6        29.91S
ALBION         CLEAR     73  66  80 SE3       29.91S
OMAHA EPPLEY   CLEAR     77  62  59 CALM      29.90S
OFFUTT AFB     CLEAR     69  61  75 CALM      29.90S
MILLARD        CLEAR     73  65  76 CALM      29.91S
LINCOLN        CLEAR     75  65  70 S3        29.92S
NEBRASKA CITY  CLEAR     74  63  66 SW3       29.93S
BEATRICE       CLEAR     75  63  65 CALM      29.93S
FALLS CITY     CLEAR     74  61  63 SW3       29.92R

...NORTHERN KANSAS...

CITY           SKY/WX    TMP DP  RH WIND       PRES   REMARKS
GOODLAND       CLEAR     73  63  70 CALM      30.00R
HILL CITY      CLEAR     76  57  51 E6        29.96R
NORTON         CLEAR     77  46  33 SE7       29.95S
PHILLIPSBURG   CLEAR     75  54  46 SE6       29.95S
SMITH CENTER   PTCLDY    70  61  73 SE8       29.95S
HAYS           CLEAR     75  58  55 SE10      29.96S
RUSSELL        CLEAR     76  56  49 SE9       29.95F
CONCORDIA      CLEAR     72  64  76 S8        29.94S
SALINA         CLEAR     77  58  51 S5        29.95S
TOPEKA         CLEAR     75  62  64 SW6       29.94R



USA.gov is the U.S. government's official web portal to all federal, state and local government web resources and services.